Wind_Speed
27 49 56 82 85 93 93 84 79 74 70 65 57 49 42 39 35 33 30 24 22 22 20 19 14 15 16 17 22 26 30 34 39 44 49 56 63 66 70 75 79 84 82 78 73 62 53 44 35 27 25 23 24 26
26 54 70 83 86 95 90 85 79 76 70 63 55 48 44 40 35 34 33 24 24 23 22 20 14 14 17 18 23 27 31 35 40 45 49 56 62 67 71 73 79 88 83 80 72 62 55 49 39 33 27 26 27 29
34 59 75 86 96 94 90 86 78 74 65 58 52 48 41 38 35 32 25 26 26 26 25 22 15 16 17 20 23 28 32 35 40 45 50 56 61 67 73 73 75 82 86 90 79 71 61 51 40 32 29 27 26 29
44 64 76 82 97 94 90 85 81 73 64 58 53 48 42 38 33 29 29 29 28 28 26 23 18 16 19 23 26 29 32 36 40 45 51 56 61 67 73 74 73 75 87 86 83 76 64 55 44 34 29 28 25 27
48 76 74 87 97 95 90 87 82 73 66 59 54 48 43 38 32 32 32 31 29 28 26 24 19 18 22 24 28 31 35 37 41 45 51 55 61 67 72 74 78 79 83 83 81 77 65 57 45 37 26 26 26 25
60 77 85 92 92 91 88 83 75 69 65 59 53 48 41 35 34 33 34 30 30 28 26 24 19 21 24 26 31 33 38 39 43 47 52 57 62 67 73 77 77 77 81 81 83 75 69 56 45 36 30 24 27 21
72 87 91 97 94 90 86 80 73 68 64 59 53 48 44 40 36 33 30 30 29 28 27 25 23 24 25 30 33 36 41 41 45 49 53 58 63 68 74 77 77 83 84 92 89 78 68 58 45 35 30 24 25 23
79 94 98 97 92 87 84 79 73 69 64 57 54 49 44 39 35 31 29 28 29 29 28 25 27 26 27 29 34 38 42 42 46 50 54 58 65 69 76 81 80 79 91 90 91 74 67 60 46 36 30 26 23 24
86 99 100 94 90 87 82 78 75 71 66 60 54 47 40 35 33 29 28 27 27 28 26 27 30 29 30 32 36 41 44 45 48 52 56 60 66 71 76 79 82 81 91 96 92 80 72 58 48 36 28 26 22 23
94 106 101 96 90 87 84 80 74 68 64 59 51 43 38 34 31 29 29 29 28 28 27 30 30 32 34 35 38 43 44 47 49 53 59 62 68 74 79 83 86 90 88 95 98 94 82 65 52 42 31 25 24 22
99 106 101 95 92 88 84 79 71 64 61 56 46 42 39 37 34 31 31 31 31 30 29 28 31 35 37 38 40 43 46 51 52 56 60 64 69 77 82 85 92 91 88 92 98 93 93 75 57 46 35 27 24 24
98 105 100 96 92 86 80 72 64 54 50 49 49 46 44 37 33 31 31 33 33 36 35 34 35 37 39 40 39 45 50 55 56 59 63 67 73 79 84 88 94 96 98 99 102 103 91 76 60 49 39 29 25 25
102 104 98 91 85 78 70 66 60 55 54 53 50 45 37 34 32 32 34 37 39 40 40 39 37 37 37 40 42 47 55 59 60 62 66 69 75 82 86 88 96 99 101 105 108 103 99 78 67 56 45 31 26 25
102 96 91 86 79 73 68 63 56 56 54 49 47 45 39 36 35 37 39 41 43 43 43 43 39 39 38 41 45 52 58 62 64 64 68 72 79 84 88 91 97 99 104 105 114 109 101 79 72 60 50 39 29 27
96 92 88 84 76 70 67 61 58 57 54 53 50 45 42 40 40 43 45 44 44 46 46 44 43 44 44 47 52 57 62 66 67 68 71 76 84 89 90 96 99 101 105 109 113 112 106 99 76 63 51 42 33 30
95 91 83 77 75 69 62 60 59 60 57 54 51 48 46 46 46 48 47 46 47 48 47 46 44 44 49 53 55 61 67 69 70 72 76 82 87 90 93 97 100 102 105 110 110 118 110 102 82 66 52 43 37 31
90 85 79 74 69 65 62 61 60 60 58 54 50 50 50 51 52 51 47 47 49 51 50 47 46 49 54 55 61 67 69 72 73 77 81 87 92 94 95 100 102 106 108 111 115 115 117 106 81 67 53 43 39 35
80 73 71 68 65 63 60 59 58 56 54 52 51 52 53 54 54 53 53 54 55 55 54 54 55 56 56 61 67 71 73 75 77 81 86 92 94 96 101 103 105 107 111 113 119 117 119 103 84 70 54 44 41 39
72 70 69 67 64 62 59 57 54 51 50 50 52 54 56 55 56 57 58 57 56 56 56 58 58 57 61 67 70 73 77 79 82 87 91 94 99 100 104 106 109 110 116 116 123 120 114 95 83 69 56 44 42 40
70 70 69 67 65 63 58 54 52 50 51 53 56 57 57 59 60 62 62 60 59 60 60 60 61 64 68 72 74 77 81 85 89 93 95 97 101 105 106 110 111 117 119 123 122 121 111 89 78 65 55 47 41 39
68 68 67 66 63 61 59 55 53 53 55 59 62 63 63 63 65 66 65 65 65 66 65 65 67 70 73 77 80 83 87 90 93 96 99 103 105 108 110 112 117 120 124 126 123 115 101 85 74 63 53 45 43 41
71 70 68 67 64 63 61 59 59 62 65 67 67 68 69 71 71 70 69 69 71 71 70 72 74 76 80 82 85 89 92 94 98 101 103 107 108 111 113 116 121 123 128 128 123 108 93 82 71 61 51 46 43 41
78 76 73 73 72 70 68 70 72 72 71 71 72 73 75 76 77 76 76 77 77 75 76 78 80 82 85 89 91 93 96 99 103 105 107 110 112 115 119 122 124 127 130 130 117 98 85 76 67 58 51 46 44 42
86 83 82 82 82 82 80 78 77 76 76 76 78 79 79 81 82 81 81 82 80 81 83 85 87 88 91 95 97 99 101 105 106 108 110 114 118 121 124 126 128 131 125 122 106 91 80 70 62 56 52 48 45 44
89 89 88 86 86 85 82 81 81 80 81 82 83 84 85 86 86 86 87 88 87 86 88 90 92 95 99 101 102 104 108 108 110 112 116 119 123 126 127 129 131 128 123 117 96 82 72 66 60 55 51 48 45 45
93 91 89 87 88 87 85 85 86 87 89 89 88 89 90 90 91 90 93 91 91 92 94 96 99 102 105 105 108 110 111 113 115 117 121 122 127 128 131 131 127 122 114 95 81 72 68 63 59 54 50 48 46 45
98 96 94 94 93 93 93 93 93 93 92 92 94 94 94 93 93 94 96 96 97 99 100 103 105 107 109 111 113 113 114 117 120 124 125 127 127 129 127 125 117 112 91 78 72 68 64 59 55 52 50 47 45 44
100 100 100 100 100 100 99 98 97 96 96 97 98 97 97 98 99 99 101 103 106 107 107 109 111 113 114 115 117 119 121 122 126 127 127 124 128 124 118 119 109 90 78 72 66 62 58 56 54 51 48 45 43 41
107 107 106 105 104 104 104 103 103 102 102 101 101 102 103 105 107 108 109 110 112 114 114 115 116 116 119 121 122 125 127 125 131 126 127 131 125 114 114 98 82 75 71 66 61 57 54 50 46 43 41 40 39 36
119 117 114 112 110 108 108 108 108 109 109 109 110 110 111 112 112 114 116 117 118 119 119 120 121 122 124 127 129 128 128 125 127 127 125 119 112 105 88 77 72 67 63 60 56 51 47 46 44 42 41 40 38 35
124 122 121 119 118 117 116 115 114 115 116 116 117 118 118 119 118 118 119 120 121 121 122 124 126 128 128 128 128 132 128 126 115 120 112 109 96 82 75 71 65 61 57 52 47 45 43 40 37 36 36 36 35 34
126 124 123 123 122 122 122 121 120 120 120 120 121 122 122 122 122 123 123 124 124 126 127 127 127 130 129 127 119 123 108 117 108 106 104 84 74 71 66 61 57 53 47 45 42 39 37 36 34 31 30 29 30 30
130 127 125 124 125 125 125 124 124 124 124 125 126 127 127 128 127 127 126 127 127 128 127 127 124 120 117 117 108 101 98 105 99 83 73 69 66 61 57 53 47 42 40 37 35 34 32 31 29 28 27 26 26 26
Wind_Direction
211 213 206 188 183 172 171 173 177 175 181 187 189 180 182 190 198 206 224 224 228 237 245 249 252 268 292 298 299 305 317 328 339 344 350 353 0 3 5 7 3 357 356 352 357 352 347 343 335 312 291 276 259 246
206 204 196 185 173 169 168 172 175 178 184 184 183 181 183 190 199 211 219 216 222 233 242 249 255 271 291 300 298 305 316 329 336 344 348 351 356 1 1 4 3 2 358 352 350 351 344 340 336 321 300 282 269 253
206 197 194 186 172 168 170 175 175 180 186 184 181 184 187 190 199 205 208 213 222 232 240 249 259 279 290 297 297 306 316 328 336 343 345 348 353 358 359 3 3 2 2 0 347 351 347 341 334 318 298 284 276 264
199 196 194 184 170 169 171 174 177 181 185 182 183 184 188 193 201 199 208 215 223 232 241 249 262 276 283 292 295 305 318 327 335 341 343 345 350 355 357 0 3 3 4 360 353 346 345 340 331 324 299 287 273 270
198 196 194 183 173 170 173 175 179 181 181 182 185 188 192 197 198 201 209 218 228 236 242 251 262 272 279 287 295 306 314 324 333 337 341 342 348 352 354 357 1 2 1 2 357 344 344 340 333 324 304 289 274 267
195 191 190 180 170 172 174 178 181 180 181 184 188 191 196 200 203 207 213 222 228 236 246 255 260 268 278 288 294 304 313 323 329 336 339 341 344 349 350 355 357 358 3 359 357 349 340 342 334 321 306 288 274 263
189 185 180 174 174 174 176 179 180 183 184 186 188 192 197 203 207 211 219 222 228 239 248 257 265 272 280 286 295 304 314 323 328 333 337 339 340 345 348 352 353 354 358 1 359 352 341 340 336 322 311 293 276 262
187 182 176 175 176 176 178 180 182 184 187 189 192 196 201 204 208 213 218 224 231 239 249 258 266 270 278 289 298 305 315 319 325 328 334 337 337 341 345 347 351 353 355 0 355 353 343 341 336 327 313 295 279 266
184 179 177 177 178 179 180 184 187 187 188 192 196 200 202 205 209 212 218 227 235 243 253 261 266 272 280 290 296 302 314 317 322 326 331 334 333 338 342 344 345 352 353 354 354 352 344 338 337 332 314 302 283 273
181 177 178 180 180 182 184 188 190 190 192 195 200 201 206 209 211 213 221 231 238 246 253 260 266 272 282 291 297 305 312 313 317 325 328 332 332 334 338 341 341 347 354 358 351 353 346 341 339 333 322 309 293 275
180 179 179 181 184 185 187 190 192 193 194 197 200 206 211 215 216 218 227 234 243 252 256 260 266 273 282 289 301 305 308 309 317 323 325 330 330 331 336 339 341 346 350 356 352 353 353 344 338 334 325 312 298 281
181 179 181 184 186 188 189 192 195 196 197 201 205 211 215 216 218 226 232 239 248 255 259 262 268 276 282 290 298 299 302 307 315 322 325 328 328 330 334 336 340 343 348 353 352 356 350 347 341 335 328 316 302 286
179 179 183 185 187 188 189 194 197 200 203 207 211 216 220 222 232 239 241 245 250 255 260 265 272 285 291 292 294 297 301 307 316 322 325 326 326 329 331 336 337 340 345 349 352 356 351 347 345 338 329 316 302 290
180 180 183 185 187 188 190 195 199 205 210 213 218 222 225 230 237 244 248 250 254 259 266 271 280 286 287 289 294 297 300 310 317 319 321 322 324 326 330 334 335 340 343 347 348 351 349 350 344 340 331 318 305 292
179 182 186 187 187 189 193 197 203 208 211 215 220 225 228 232 237 244 249 252 257 262 268 274 281 286 287 288 292 297 303 312 315 316 318 319 322 324 329 332 335 337 341 344 348 348 349 349 343 339 330 319 306 293
181 185 186 188 189 191 195 201 207 212 216 220 223 227 230 234 239 245 251 257 262 266 272 278 282 282 284 288 295 301 307 310 312 313 315 318 320 323 328 331 333 336 339 340 346 345 346 346 342 337 329 319 307 297
184 186 187 189 191 194 201 208 212 217 221 225 229 232 236 241 245 250 255 260 264 267 270 275 277 280 286 294 297 301 304 308 310 311 313 316 317 322 326 328 329 335 336 342 343 345 345 343 339 336 329 318 308 299
185 186 191 195 197 200 205 212 217 221 226 230 236 240 242 246 250 253 256 259 263 267 271 274 278 283 290 292 296 300 302 303 306 308 312 314 318 321 322 328 331 333 335 337 343 342 342 341 337 332 327 317 308 301
187 192 195 198 202 206 211 217 222 226 231 237 242 245 247 250 253 255 258 263 268 272 273 276 280 285 287 291 295 297 299 302 305 308 311 313 316 321 324 326 327 332 334 335 339 339 340 338 334 330 324 316 309 302
192 196 199 203 207 211 214 220 225 230 236 241 245 247 250 251 254 257 260 263 266 269 272 275 279 282 289 293 294 296 298 301 305 307 310 313 317 320 323 324 329 330 333 335 336 337 337 334 330 326 320 314 309 301
200 203 205 208 211 214 219 223 228 232 238 242 245 247 249 253 255 258 261 265 268 271 274 278 283 287 289 291 292 295 298 301 304 307 310 314 317 318 322 324 326 331 331 334 335 334 333 330 326 321 315 310 306 303
204 207 210 213 216 218 221 225 229 233 235 239 243 246 249 252 255 257 261 264 267 270 275 280 282 285 287 290 293 295 299 301 305 307 310 313 316 317 321 324 327 329 329 332 332 331 329 324 322 317 312 307 302 298
205 208 212 216 218 220 223 226 229 231 234 238 243 246 250 253 256 259 262 265 269 273 277 280 282 285 288 290 293 296 298 303 304 307 309 312 315 317 320 323 327 326 329 329 329 326 324 321 318 314 310 304 300 295
206 209 213 217 219 221 223 227 230 234 237 241 244 247 250 254 257 260 263 266 270 275 278 280 283 286 288 290 293 296 299 302 303 306 309 313 314 318 321 324 324 327 328 328 324 322 320 318 315 312 307 304 300 295
211 214 217 219 223 226 228 230 234 237 240 243 246 249 252 255 259 263 266 269 274 277 280 282 285 286 288 291 293 296 299 301 304 306 311 312 316 318 321 322 324 325 324 323 319 317 317 315 312 310 307 304 302 299
216 218 220 224 227 230 233 236 238 240 243 246 249 252 256 260 263 266 270 273 276 278 281 282 284 286 288 291 293 295 299 302 305 308 309 312 315 319 321 322 324 323 321 315 314 314 315 313 311 310 308 305 302 298
218 220 222 225 228 232 235 237 240 243 246 250 252 255 258 262 265 268 270 273 276 278 279 280 283 286 288 290 293 296 300 302 304 306 312 313 316 319 320 322 322 319 313 313 314 314 313 311 309 308 306 304 300 297
221 224 226 228 231 234 237 239 241 244 247 249 252 256 259 262 264 267 269 271 272 275 278 280 282 285 288 291 294 297 299 302 305 308 312 315 316 318 318 318 316 312 312 314 313 312 312 310 309 306 303 300 298 295
223 224 227 230 233 236 238 240 242 245 248 251 254 256 259 261 263 266 268 271 272 274 277 280 283 287 289 291 295 297 299 303 306 310 314 314 317 318 316 312 309 311 312 312 312 312 311 308 306 304 302 301 301 300
222 225 228 230 233 237 239 242 244 246 249 252 254 256 258 261 264 266 268 271 274 277 279 282 284 287 289 292 295 298 301 306 307 311 311 315 313 312 308 308 309 310 311 311 310 309 307 305 303 302 301 299 299 297
225 227 229 231 234 236 239 242 245 247 250 252 255 257 260 262 266 269 271 273 276 278 281 283 285 288 291 294 298 299 301 305 308 310 310 309 307 305 306 306 308 310 311 309 307 306 305 303 301 300 299 298 299 298
229 230 232 235 237 238 241 244 247 250 252 255 257 259 262 264 267 270 273 275 277 279 283 285 288 290 294 297 299 301 306 307 307 307 304 302 303 304 305 308 309 309 308 307 309 309 306 303 301 299 299 297 296 295
230 232 235 239 241 242 244 246 249 252 253 256 258 260 262 266 268 271 275 277 280 282 285 287 290 293 295 296 302 303 303 304 301 298 300 302 302 304 306 307 307 307 308 309 307 306 305 305 306 304 302 301 300 299
Height
10244 10250 10259 10274 10287 10306 10326 10353 10377 10398 10414 10427 10438 10447 10459 10471 10481 10487 10495 10504 10509 10514 10517 10520 10524 10525 10526 10526 10524 10522 10519 10514 10509 10502 10493 10483 10473 10461 10451 10437 10421 10405 10392 10379 10367 10358 10350 10346 10340 10336 10332 10329 10327 10328
10244 10253 10265 10276 10289 10309 10329 10352 10372 10394 10408 10420 10434 10446 10455 10466 10475 10483 10491 10498 10503 10507 10511 10514 10517 10519 10520 10520 10518 10516 10513 10509 10503 10496 10487 10478 10467 10457 10445 10431 10418 10402 10389 10377 10368 10360 10348 10338 10333 10326 10323 10322 10320 10319
10243 10257 10269 10278 10292 10310 10330 10351 10373 10392 10409 10421 10431 10443 10453 10462 10470 10478 10486 10491 10496 10500 10503 10507 10510 10512 10514 10514 10513 10510 10506 10504 10497 10490 10481 10473 10464 10453 10441 10430 10417 10403 10388 10371 10358 10354 10343 10332 10327 10321 10315 10312 10312 10312
10244 10256 10269 10279 10293 10309 10329 10349 10372 10390 10405 10416 10428 10439 10449 10457 10464 10473 10479 10485 10490 10494 10497 10501 10503 10505 10507 10507 10506 10503 10500 10497 10491 10484 10476 10468 10458 10449 10439 10430 10418 10405 10392 10375 10356 10347 10336 10329 10319 10313 10308 10303 10302 10303
10244 10258 10270 10280 10295 10310 10329 10348 10367 10385 10399 10412 10425 10435 10444 10452 10460 10466 10473 10479 10484 10488 10491 10494 10497 10499 10500 10500 10498 10496 10493 10490 10484 10478 10470 10463 10453 10444 10436 10425 10414 10403 10390 10375 10359 10343 10335 10321 10311 10304 10298 10294 10293 10293
10244 10261 10274 10287 10300 10314 10332 10354 10372 10385 10396 10409 10420 10431 10440 10447 10454 10461 10467 10473 10477 10482 10485 10488 10490 10492 10493 10493 10491 10489 10486 10482 10477 10471 10465 10455 10448 10440 10431 10420 10410 10400 10388 10374 10356 10341 10326 10316 10305 10296 10291 10286 10285 10284
10242 10259 10274 10287 10301 10315 10337 10354 10370 10383 10396 10406 10417 10427 10435 10442 10448 10455 10462 10467 10472 10476 10478 10482 10484 10486 10487 10485 10482 10481 10478 10475 10469 10463 10457 10449 10441 10434 10426 10416 10405 10392 10383 10367 10352 10336 10321 10309 10298 10289 10284 10279 10277 10275
10241 10260 10276 10289 10305 10321 10339 10353 10366 10379 10392 10403 10413 10422 10429 10437 10443 10450 10457 10461 10466 10470 10472 10475 10477 10479 10479 10477 10475 10473 10470 10466 10461 10456 10451 10444 10435 10427 10419 10409 10398 10388 10372 10358 10344 10328 10312 10302 10291 10282 10276 10273 10269 10268
10241 10259 10276 10292 10310 10324 10339 10352 10364 10375 10388 10399 10409 10416 10425 10432 10438 10444 10452 10456 10460 10463 10466 10469 10471 10472 10471 10470 10468 10465 10462 10457 10454 10449 10444 10437 10429 10421 10413 10403 10394 10385 10371 10353 10336 10321 10305 10291 10284 10276 10270 10265 10262 10260
10240 10257 10275 10292 10311 10323 10336 10350 10364 10375 10386 10395 10403 10414 10421 10427 10433 10441 10447 10451 10454 10457 10460 10461 10463 10463 10463 10462 10460 10457 10453 10447 10445 10442 10436 10429 10420 10412 10403 10393 10384 10374 10363 10347 10328 10309 10293 10283 10277 10267 10260 10255 10253 10251
10239 10258 10277 10295 10310 10323 10337 10351 10364 10376 10385 10394 10406 10413 10417 10423 10428 10436 10442 10446 10449 10450 10452 10455 10455 10455 10454 10453 10451 10448 10443 10437 10437 10434 10427 10420 10411 10402 10393 10384 10374 10363 10352 10337 10322 10305 10289 10275 10269 10262 10254 10248 10244 10243
10241 10262 10280 10296 10311 10326 10340 10356 10370 10383 10393 10397 10400 10404 10410 10417 10423 10430 10436 10439 10441 10441 10443 10445 10446 10446 10446 10445 10443 10438 10432 10428 10428 10423 10417 10409 10401 10392 10383 10373 10363 10352 10340 10326 10314 10299 10284 10268 10261 10254 10246 10239 10235 10233
10247 10262 10280 10298 10316 10333 10347 10359 10369 10378 10384 10389 10396 10402 10410 10415 10420 10424 10426 10428 10430 10431 10432 10435 10437 10438 10436 10435 10432 10428 10422 10418 10416 10412 10405 10399 10390 10383 10373 10365 10353 10341 10329 10313 10303 10293 10276 10263 10252 10244 10238 10231 10226 10223
10251 10269 10286 10303 10320 10335 10349 10358 10369 10377 10384 10390 10396 10400 10406 10412 10414 10413 10414 10416 10418 10419 10422 10424 10427 10427 10427 10425 10421 10416 10410 10408 10404 10400 10395 10387 10380 10373 10364 10356 10344 10332 10321 10306 10292 10277 10267 10257 10245 10235 10227 10221 10215 10212
10258 10274 10288 10306 10323 10336 10346 10357 10365 10371 10378 10384 10388 10394 10400 10401 10403 10402 10403 10405 10407 10409 10411 10414 10416 10417 10416 10413 10409 10403 10398 10396 10393 10389 10382 10375 10368 10360 10352 10343 10333 10323 10312 10298 10287 10269 10255 10245 10235 10226 10218 10211 10206 10202
10263 10274 10293 10311 10324 10336 10346 10353 10360 10366 10370 10376 10382 10387 10389 10391 10392 10391 10394 10397 10397 10399 10402 10404 10406 10405 10403 10401 10397 10391 10388 10385 10381 10375 10370 10364 10356 10349 10342 10332 10323 10311 10300 10289 10277 10263 10247 10235 10225 10216 10207 10200 10195 10191
10265 10283 10300 10314 10327 10335 10341 10349 10354 10358 10365 10372 10375 10378 10381 10382 10382 10383 10387 10388 10387 10388 10392 10394 10393 10392 10392 10390 10384 10379 10376 10373 10369 10363 10357 10351 10342 10335 10328 10319 10308 10299 10288 10277 10265 10252 10237 10225 10213 10205 10196 10189 10183 10179
10285 10299 10311 10322 10329 10332 10339 10343 10348 10356 10363 10365 10368 10369 10370 10371 10372 10374 10375 10375 10376 10378 10381 10382 10382 10382 10382 10376 10371 10368 10363 10359 10356 10350 10344 10336 10329 10320 10312 10304 10294 10284 10275 10264 10253 10241 10229 10214 10201 10193 10185 10177 10172 10167
10293 10303 10311 10317 10322 10327 10332 10339 10346 10352 10356 10358 10358 10358 10358 10360 10362 10362 10363 10365 10368 10369 10370 10370 10372 10372 10367 10363 10360 10355 10349 10346 10342 10336 10329 10321 10312 10306 10296 10287 10280 10270 10262 10249 10240 10226 10215 10201 10189 10179 10172 10166 10159 10155
10286 10292 10299 10306 10312 10319 10328 10334 10341 10345 10348 10348 10346 10346 10347 10348 10348 10349 10351 10355 10357 10357 10357 10359 10361 10358 10355 10350 10346 10342 10336 10331 10327 10319 10314 10307 10299 10290 10279 10271 10262 10251 10243 10233 10221 10207 10196 10185 10175 10166 10158 10152 10148 10144
10284 10288 10295 10301 10308 10316 10322 10328 10332 10335 10335 10333 10331 10332 10334 10335 10335 10336 10340 10342 10343 10344 10347 10347 10347 10345 10342 10338 10332 10326 10321 10317 10311 10305 10297 10290 10283 10272 10266 10254 10245 10237 10225 10215 10201 10190 10177 10168 10159 10151 10144 10138 10133 10129
10271 10281 10287 10292 10299 10304 10310 10316 10318 10316 10316 10315 10317 10319 10320 10319 10321 10324 10328 10329 10329 10332 10335 10334 10333 10331 10326 10322 10316 10310 10306 10300 10295 10288 10281 10273 10265 10256 10247 10239 10230 10218 10205 10195 10182 10170 10161 10150 10142 10136 10129 10123 10119 10114
10254 10261 10270 10275 10282 10288 10294 10295 10295 10297 10299 10302 10304 10305 10305 10306 10307 10311 10313 10313 10316 10321 10320 10319 10317 10314 10309 10304 10300 10295 10289 10284 10276 10270 10263 10256 10247 10238 10230 10221 10211 10199 10187 10174 10164 10151 10141 10133 10125 10119 10113 10108 10104 10099
10237 10245 10251 10256 10261 10267 10273 10278 10282 10285 10287 10289 10289 10291 10292 10292 10293 10297 10298 10300 10305 10306 10306 10302 10299 10295 10290 10286 10282 10277 10271 10265 10258 10251 10244 10235 10227 10218 10210 10201 10190 10180 10166 10155 10143 10131 10121 10114 10109 10103 10097 10092 10088 10084
10229 10232 10239 10246 10252 10258 10264 10267 10270 10273 10275 10275 10277 10279 10277 10279 10282 10284 10285 10287 10290 10290 10287 10284 10280 10275 10270 10267 10261 10257 10251 10244 10238 10231 10224 10214 10209 10199 10192 10182 10170 10160 10145 10134 10122 10113 10104 10097 10092 10086 10081 10076 10072 10068
10219 10229 10236 10241 10243 10249 10254 10257 10258 10259 10259 10262 10265 10265 10265 10268 10270 10271 10270 10272 10272 10271 10268 10263 10259 10255 10251 10247 10242 10236 10231 10225 10218 10212 10203 10198 10190 10180 10171 10160 10149 10134 10122 10110 10101 10094 10088 10082 10075 10069 10065 10060 10055 10051
10207 10216 10221 10224 10229 10232 10235 10238 10241 10244 10247 10249 10249 10250 10253 10254 10255 10254 10253 10253 10252 10249 10246 10242 10238 10235 10229 10226 10220 10216 10212 10206 10200 10190 10187 10177 10167 10160 10148 10137 10123 10113 10100 10091 10084 10076 10069 10064 10058 10052 10047 10044 10040 10036
10193 10198 10203 10207 10211 10214 10218 10222 10227 10230 10231 10231 10232 10235 10236 10237 10236 10237 10235 10232 10228 10226 10224 10221 10218 10213 10210 10206 10202 10197 10190 10184 10179 10171 10164 10156 10149 10138 10127 10116 10103 10091 10082 10073 10065 10059 10053 10046 10040 10036 10031 10026 10023 10022
10173 10178 10182 10187 10192 10197 10201 10205 10207 10209 10211 10214 10215 10215 10216 10215 10215 10214 10213 10211 10208 10203 10202 10200 10198 10196 10191 10185 10182 10175 10169 10163 10158 10149 10142 10134 10125 10113 10103 10092 10082 10075 10066 10057 10051 10044 10037 10032 10027 10022 10017 10013 10009 10007
10150 10156 10161 10167 10172 10176 10180 10184 10187 10189 10190 10191 10192 10192 10192 10192 10192 10191 10190 10188 10188 10187 10185 10181 10177 10174 10169 10164 10159 10154 10150 10142 10136 10132 10121 10111 10098 10089 10079 10071 10064 10056 10050 10043 10036 10030 10024 10017 10013 10009 10004 10000 9997 9995
10131 10136 10141 10147 10150 10154 10158 10162 10163 10167 10169 10170 10170 10170 10171 10172 10172 10172 10171 10169 10167 10165 10162 10160 10156 10153 10149 10144 10139 10133 10127 10125 10115 10108 10096 10086 10074 10067 10060 10053 10047 10040 10034 10028 10022 10016 10010 10006 10002 9998 9993 9988 9985 9982
10113 10118 10123 10128 10133 10135 10140 10144 10146 10149 10150 10153 10154 10153 10151 10150 10149 10150 10150 10148 10145 10142 10141 10139 10136 10130 10128 10125 10116 10115 10106 10102 10092 10082 10072 10063 10057 10050 10043 10038 10033 10027 10021 10014 10007 10002 9998 9994 9990 9987 9983 9979 9976 9973
10094 10098 10104 10110 10115 10116 10117 10122 10125 10128 10131 10131 10131 10131 10130 10130 10130 10132 10130 10127 10124 10122 10119 10117 10114 10108 10103 10099 10096 10091 10084 10078 10067 10056 10052 10047 10041 10034 10029 10024 10019 10014 10009 10004 9999 9994 9989 9985 9980 9976 9973 9970 9967 9964